DW7110 Weather Reports


Display with metric or nautical units.
time (UTC)temp
F
wind
direction
speed
MPH
gust
MPH
rain 1hr
in
rain 24hr
in
rain mn
in
humidity
%
barometer
mb
20260901094529 66 1 0.0 0.0 0.00 0.00 0.00 94 1021.3
20260901093026 66 1 0.0 0.0 0.00 0.00 0.00 94 1021.2
20260901091526 67 1 0.0 0.0 0.00 0.00 0.00 94 1021.3
20260901090033 67 1 0.0 0.0 0.00 0.00 0.00 94 1021.2
20260901084523 67 1 0.0 0.0 0.00 0.00 0.00 93 1021.4
20260901083031 67 1 0.0 0.0 0.00 0.00 0.00 94 1021.4
20260901081625 67 1 0.0 0.0 0.00 0.00 0.00 94 1021.5
20260901080019 67 1 0.0 0.0 0.00 0.00 0.00 93 1021.5
20260901074526 67 1 0.0 0.0 0.00 0.00 0.00 93 1021.5
20260901073031 67 1 0.0 0.0 0.00 0.00 0.00 93 1021.5
20260901071516 68 1 0.0 0.0 0.00 0.00 0.00 93 1021.6
20260901070021 68 1 0.0 0.0 0.00 0.00 0.00 93 1021.6
20260901064523 68 1 0.0 0.0 0.00 0.00 0.00 92 1021.7
20260901063012 68 1 0.0 0.0 0.00 0.00 0.00 93 1021.8
20260901061511 68 1 0.0 0.0 0.00 0.00 0.00 92 1021.9
20260901060011 68 1 0.0 0.0 0.00 0.00 0.00 92 1022.0
20260901054508 68 1 0.0 0.0 0.00 0.00 0.00 92 1022.0
20260901053009 69 1 0.0 0.0 0.00 0.00 0.00 92 1022.1
20260901051510 69 1 0.0 0.0 0.00 0.00 0.00 92 1022.2
20260901050005 69 1 0.0 0.0 0.00 0.00 0.00 92 1022.2
20260901044505 69 1 0.0 0.0 0.00 0.00 0.00 91 1022.0
20260901043002 69 1 0.0 0.0 0.00 0.00 0.00 91 1021.9
20260901041608 70 1 0.0 0.0 0.00 0.00 0.00 91 1021.8
20260901040114 70 1 0.0 0.0 0.00 0.00 0.00 91 1021.7
20260901034557 70 1 0.0 0.0 0.00 0.00 0.00 91 1021.7
20260901033104 70 1 0.0 0.0 0.00 0.00 0.00 90 1021.5
20260901031610 71 1 0.0 0.0 0.00 0.00 0.00 90 1021.5
20260901030059 71 1 0.0 0.0 0.00 0.00 0.00 90 1021.7
20260901024557 71 1 0.0 0.0 0.00 0.00 0.00 89 1021.7
20260901023054 71 1 0.0 0.0 0.00 0.00 0.00 89 1021.6
20260901021555 72 1 0.0 0.0 0.00 0.00 0.00 89 1021.5
20260901020054 72 1 0.0 0.0 0.00 0.00 0.00 88 1021.4
20260901014553 72 1 0.0 0.0 0.00 0.00 0.00 89 1021.2
20260901013053 72 1 0.0 0.0 0.00 0.00 0.00 88 1021.0
20260901011554 73 1 0.0 0.0 0.00 0.00 0.00 88 1021.0
20260901010052 73 1 0.0 0.0 0.00 0.00 0.00 88 1020.8
20260901004551 73 1 1.0 2.0 0.00 0.00 0.00 87 1020.7
20260901003052 74 1 0.0 0.0 0.00 0.00 0.00 88 1020.7
20260901001558 74 1 0.0 0.0 0.00 0.00 0.00 87 1020.5
20260901000050 74 1 1.0 2.0 0.00 0.00 0.00 87 1020.4
20260831234549 75 1 0.0 0.0 0.00 0.00 0.00 86 1020.5
20260831233048 76 1 0.0 0.0 0.00 0.00 0.00 86 1020.4
20260831231552 76 1 0.0 0.0 0.00 0.00 0.00 84 1020.3
20260831230105 78 1 0.0 0.0 0.00 0.00 0.00 85 1020.4
20260831224545 78 1 0.0 0.0 0.00 0.00 0.00 84 1020.4
20260831223048 79 1 1.0 3.0 0.00 0.00 0.00 83 1020.5
20260831221552 79 1 0.0 0.0 0.00 0.00 0.00 85 1020.5
20260831220044 79 1 0.0 1.0 0.00 0.00 0.00 84 1020.6
20260831214546 79 1 0.0 0.0 0.00 0.00 0.00 78 1020.7
20260831213048 80 1 0.0 0.0 0.00 0.00 0.00 77 1020.8
20260831211550 79 1 0.0 0.0 0.00 0.00 0.00 80 1020.8
20260831210041 79 1 0.0 0.0 0.00 0.00 0.00 80 1020.8
20260831204540 78 1 0.0 0.0 0.00 0.00 0.00 82 1020.9
20260831203042 78 1 0.0 0.0 0.00 0.00 0.00 82 1021.0
20260831201539 77 1 0.0 4.0 0.00 0.00 0.00 79 1021.1
20260831200037 78 1 1.0 4.0 0.00 0.00 0.00 81 1021.3
20260831194605 78 1 0.0 4.0 0.00 0.00 0.00 81 1021.4
20260831193034 77 1 1.0 4.0 0.00 0.00 0.00 81 1021.4
20260831191532 78 1 3.0 5.0 0.00 0.00 0.00 84 1021.5
20260831190033 78 1 0.0 4.0 0.00 0.00 0.00 86 1021.6
20260831184542 77 1 0.0 0.0 0.00 0.00 0.00 84 1021.6
20260831183030 77 1 0.0 2.0 0.00 0.00 0.00 83 1021.6
20260831181531 78 1 3.0 5.0 0.00 0.00 0.00 82 1021.7
20260831180028 81 1 0.0 0.0 0.00 0.00 0.00 73 1021.8
20260831174543 82 1 0.0 0.0 0.00 0.00 0.00 75 1021.9
20260831173027 82 1 0.0 1.0 0.00 0.00 0.00 74 1022.0
20260831171539 81 1 0.0 1.0 0.00 0.00 0.00 78 1022.1
20260831170054 80 1 0.0 1.0 0.00 0.00 0.00 84 1022.3
20260831164522 79 1 0.0 1.0 0.00 0.00 0.00 84 1022.4
20260831163015 78 1 0.0 1.0 0.00 0.00 0.00 86 1022.5
20260831161511 77 1 0.0 0.0 0.00 0.00 0.00 87 1022.8
20260831160018 76 1 0.0 0.0 0.00 0.00 0.00 88 1022.9
20260831154504 74 1 0.0 0.0 0.00 0.00 0.00 91 1023.0
20260831153059 72 1 0.0 0.0 0.00 0.00 0.00 92 1023.0
20260831151556 71 1 0.0 0.0 0.00 0.00 0.00 93 1023.1
20260831150053 70 1 0.0 0.0 0.00 0.00 0.00 93 1023.2
20260831144550 69 1 0.0 0.0 0.00 0.00 0.00 94 1023.2
20260831143049 69 1 0.0 0.0 0.00 0.00 0.00 94 1023.3
20260831141546 68 1 0.0 0.0 0.00 0.00 0.00 94 1023.1
20260831140044 68 1 0.0 0.0 0.00 0.00 0.00 95 1023.0
20260831134547 68 1 0.0 0.0 0.00 0.00 0.00 95 1023.0
20260831133042 67 1 0.0 0.0 0.00 0.00 0.00 94 1023.0
20260831131545 67 1 0.0 0.0 0.00 0.00 0.00 95 1023.1
20260831130044 67 1 0.0 0.0 0.00 0.00 0.00 95 1023.0
20260831124542 67 1 0.0 0.0 0.00 0.00 0.00 94 1022.9
20260831123038 67 1 0.0 0.0 0.00 0.00 0.00 94 1022.8
20260831121538 67 1 0.0 0.0 0.00 0.00 0.00 95 1022.7
20260831120036 66 1 0.0 0.0 0.00 0.00 0.00 95 1022.7
20260831114535 66 1 0.0 0.0 0.00 0.00 0.00 94 1022.7
20260831113034 66 1 0.0 0.0 0.00 0.00 0.00 94 1022.5
20260831111534 66 1 0.0 0.0 0.00 0.00 0.00 94 1022.5
20260831110033 66 1 0.0 0.0 0.00 0.00 0.00 94 1022.4
20260831104539 66 1 0.0 0.0 0.00 0.00 0.00 94 1022.2
20260831103052 66 1 0.0 0.0 0.00 0.00 0.00 94 1022.3
20260831101530 66 1 0.0 0.0 0.00 0.00 0.00 94 1022.1
20260831100037 67 1 0.0 0.0 0.00 0.00 0.00 94 1022.0